Ogden, UT

7:23 AM MDT on October 18, 2017 (GMT -0600)
Ogden-Hinckley

Weather History for KOGD - September, 2013

Change the Weather History Date:

Saturday, September 28, 2013

  Actual Average Record
Temperature  
Mean Temperature 50 °F -  
Max Temperature 64 °F 72 °F 89 °F (1938)
Min Temperature 37 °F 43 °F 29 °F (1971)
Degree Days  
Heating Degree Days 14    
Moisture  
Dew Point 29 °F    
Average Humidity 48    
Maximum Humidity 77    
Minimum Humidity 23    
Precipitation  
Precipitation 0.00 in - - ()
Sea Level Pressure  
Sea Level Pressure 30.14 in    
Wind  
Wind Speed 9 mph (SSE)    
Max Wind Speed 13 mph    
Max Gust Speed 17 mph    
Visibility 10 miles    
Events      
Averages and records for this station are not official NWS values.
T = Trace of Precipitation, MM = Missing Value Source: NWS Daily Summary

Daily Weather History Graph

Daily Weather History Graph

Search for Another Location

Airport or City:

Trip Planner

Search our weather history database for the weather conditions in past years. The results will help you decide how hot, cold, wet, or windy it might be!

Date:

Astronomy

Sep. 28, 2013 Rise Set
Actual Time 7:21 AM MDT 7:14 PM MDT
Civil Twilight 6:54 AM MDT 7:41 PM MDT
Nautical Twilight 6:22 AM MDT 8:13 PM MDT
Astronomical Twilight 5:49 AM MDT 8:46 PM MDT
Moon 1:09 AM MDT (9/28) 3:38 PM MDT (9/28)
Length of Visible Light 12h 47m
Length of Day
11h 52m
Waning Crescent, 35% of the Moon is Illuminated
Sep 28
Waning Crescent
Oct 4
New
Oct 11
First Quarter
Oct 18
Full
Oct 26
Last Quarter

Hourly Weather History & Observations

Time (MDT) Temp. Windchill Dew Point Humidity Pressure Visibility Wind Dir Wind Speed Gust Speed Precip Events Conditions
12:53 AM 39.9 °F 33.9 °F 33.1 °F 77% 30.16 in 10.0 mi SSE 9.2 mph - N/A   Clear
1:53 AM 39.9 °F 33.9 °F 32.0 °F 73% 30.16 in 10.0 mi South 9.2 mph - N/A   Clear
2:53 AM 39.0 °F 32.8 °F 30.9 °F 73% 30.17 in 10.0 mi South 9.2 mph - N/A   Clear
3:53 AM 37.9 °F 30.9 °F 30.9 °F 76% 30.17 in 10.0 mi SSE 10.4 mph - N/A   Clear
4:53 AM 37.9 °F 32.1 °F 30.9 °F 76% 30.18 in 10.0 mi SSE 8.1 mph - N/A   Clear
5:53 AM 37.9 °F 30.9 °F 30.0 °F 73% 30.18 in 10.0 mi South 10.4 mph - N/A   Clear
6:53 AM 37.0 °F 31.0 °F 30.0 °F 76% 30.20 in 10.0 mi South 8.1 mph - N/A   Clear
7:53 AM 37.9 °F 31.5 °F 30.0 °F 73% 30.21 in 10.0 mi South 9.2 mph - N/A   Clear
8:53 AM 43.0 °F 38.8 °F 30.0 °F 60% 30.22 in 10.0 mi SSE 6.9 mph - N/A   Clear
9:53 AM 48.0 °F - 30.9 °F 52% 30.22 in 10.0 mi Calm Calm - N/A   Clear
10:53 AM 54.0 °F - 30.0 °F 40% 30.21 in 10.0 mi South 8.1 mph - N/A   Clear
11:53 AM 57.0 °F - 28.9 °F 34% 30.20 in 10.0 mi SSE 9.2 mph - N/A   Clear
12:53 PM 59.0 °F - 27.0 °F 29% 30.18 in 10.0 mi SW 12.7 mph - N/A   Clear
1:53 PM 62.1 °F - 26.1 °F 25% 30.15 in 10.0 mi South 11.5 mph 17.3 mph N/A   Clear
2:53 PM 62.1 °F - 24.1 °F 23% 30.13 in 10.0 mi South 9.2 mph - N/A   Clear
3:53 PM 63.0 °F - 24.1 °F 23% 30.12 in 10.0 mi Variable 6.9 mph - N/A   Clear
4:53 PM 64.0 °F - 26.1 °F 24% 30.10 in 10.0 mi SE 8.1 mph - N/A   Clear
5:53 PM 63.0 °F - 28.0 °F 27% 30.09 in 10.0 mi South 9.2 mph - N/A   Clear
6:53 PM 62.1 °F - 27.0 °F 26% 30.08 in 10.0 mi SSE 4.6 mph - N/A   Clear
7:53 PM 57.0 °F - 28.0 °F 33% 30.08 in 10.0 mi ESE 3.5 mph - N/A   Clear
8:53 PM 53.1 °F - 30.9 °F 43% 30.08 in 10.0 mi SSE 6.9 mph - N/A   Clear
9:53 PM 52.0 °F - 28.9 °F 41% 30.06 in 10.0 mi South 8.1 mph - N/A   Clear
10:53 PM 51.1 °F - 28.0 °F 41% 30.05 in 10.0 mi South 9.2 mph - N/A   Clear
11:53 PM 48.9 °F - 28.0 °F 44% 30.05 in 10.0 mi South 11.5 mph - N/A   Clear